QPF
0.00 0.00 0.00 0.00 0.00 0.00 0.00 0.01 0.02 0.01 0.00 0.00 0.00 0.01 0.01 0.01 0.01 0.01 0.01 0.01 0.02 0.02 0.02 0.03 0.02 0.02 0.02 0.03 0.03 0.04 0.04 0.04 0.04 0.04 0.04 0.03 0.03 0.03 0.03 0.02 0.02 0.02 0.01 0.01
0.00 0.00 0.00 0.00 0.00 0.00 0.00 0.00 0.01 0.01 0.01 0.00 0.00 0.01 0.01 0.01 0.01 0.01 0.01 0.01 0.01 0.02 0.03 0.03 0.02 0.02 0.02 0.02 0.04 0.05 0.05 0.05 0.05 0.04 0.03 0.03 0.03 0.02 0.02 0.02 0.02 0.02 0.02 0.02
0.00 0.00 0.00 0.00 0.00 0.00 0.00 0.00 0.01 0.01 0.01 0.01 0.01 0.01 0.01 0.01 0.01 0.01 0.01 0.01 0.00 0.01 0.02 0.03 0.02 0.02 0.02 0.03 0.03 0.05 0.05 0.05 0.05 0.05 0.04 0.04 0.03 0.03 0.03 0.03 0.03 0.03 0.04 0.04
0.00 0.00 0.00 0.00 0.00 0.00 0.00 0.00 0.00 0.01 0.01 0.01 0.01 0.01 0.01 0.01 0.01 0.01 0.01 0.01 0.00 0.01 0.01 0.01 0.01 0.01 0.02 0.02 0.03 0.06 0.08 0.07 0.07 0.07 0.07 0.07 0.07 0.06 0.05 0.05 0.06 0.06 0.06 0.05
0.01 0.00 0.00 0.00 0.00 0.00 0.00 0.00 0.00 0.00 0.00 0.00 0.00 0.00 0.00 0.01 0.01 0.01 0.01 0.01 0.01 0.01 0.01 0.01 0.01 0.01 0.01 0.02 0.04 0.09 0.10 0.10 0.10 0.10 0.10 0.09 0.09 0.09 0.09 0.09 0.08 0.07 0.05 0.03
0.02 0.01 0.00 0.01 0.00 0.00 0.01 0.01 0.01 0.00 0.00 0.00 0.00 0.00 0.00 0.01 0.01 0.01 0.02 0.02 0.02 0.02 0.02 0.02 0.03 0.04 0.06 0.08 0.09 0.11 0.10 0.11 0.11 0.10 0.11 0.12 0.13 0.14 0.13 0.11 0.08 0.05 0.03 0.02
0.02 0.02 0.00 0.00 0.00 0.00 0.02 0.02 0.00 0.00 0.00 0.01 0.01 0.00 0.00 0.01 0.01 0.01 0.02 0.04 0.05 0.07 0.07 0.08 0.10 0.12 0.13 0.13 0.14 0.15 0.15 0.15 0.15 0.14 0.15 0.16 0.16 0.13 0.10 0.07 0.04 0.02 0.01 0.01
0.01 0.01 0.00 0.00 0.00 0.00 0.01 0.00 0.00 0.00 0.00 0.01 0.02 0.01 0.00 0.01 0.01 0.02 0.03 0.05 0.07 0.10 0.12 0.14 0.15 0.17 0.18 0.20 0.21 0.20 0.19 0.19 0.18 0.17 0.14 0.11 0.09 0.07 0.04 0.03 0.01 0.01 0.00 0.00
0.00 0.00 0.00 0.00 0.00 0.00 0.00 0.00 0.00 0.00 0.00 0.00 0.02 0.02 0.01 0.01 0.01 0.01 0.02 0.04 0.06 0.08 0.09 0.10 0.13 0.17 0.19 0.20 0.19 0.17 0.16 0.15 0.13 0.10 0.07 0.05 0.03 0.02 0.01 0.01 0.00 0.00 0.00 0.00
0.01 0.00 0.00 0.00 0.00 0.00 0.00 0.00 0.00 0.00 0.00 0.00 0.01 0.03 0.03 0.02 0.01 0.02 0.02 0.03 0.04 0.05 0.06 0.06 0.08 0.09 0.11 0.11 0.10 0.09 0.08 0.07 0.05 0.04 0.03 0.01 0.01 0.00 0.00 0.00 0.00 0.00 0.00 0.00
0.00 0.00 0.00 0.00 0.00 0.00 0.00 0.00 0.00 0.00 0.00 0.00 0.00 0.01 0.02 0.02 0.01 0.01 0.01 0.01 0.01 0.02 0.02 0.02 0.02 0.03 0.03 0.03 0.03 0.03 0.02 0.02 0.01 0.01 0.00 0.00 0.00 0.00 0.00 0.00 0.00 0.00 0.00 0.00
0.00 0.00 0.00 0.00 0.00 0.00 0.00 0.00 0.00 0.00 0.01 0.00 0.00 0.01 0.02 0.02 0.01 0.01 0.01 0.01 0.01 0.00 0.01 0.00 0.01 0.01 0.01 0.01 0.01 0.01 0.00 0.00 0.00 0.00 0.00 0.00 0.00 0.00 0.00 0.00 0.00 0.00 0.00 0.00
0.01 0.01 0.00 0.00 0.00 0.00 0.00 0.00 0.00 0.00 0.01 0.00 0.01 0.01 0.01 0.01 0.02 0.01 0.01 0.01 0.00 0.00 0.00 0.00 0.00 0.01 0.01 0.00 0.00 0.00 0.00 0.00 0.00 0.00 0.00 0.00 0.00 0.00 0.00 0.00 0.00 0.00 0.00 0.00
0.00 0.00 0.00 0.00 0.00 0.00 0.00 0.00 0.00 0.00 0.00 0.00 0.00 0.01 0.01 0.01 0.02 0.02 0.01 0.01 0.01 0.01 0.00 0.00 0.01 0.00 0.00 0.00 0.00 0.00 0.00 0.00 0.00 0.00 0.00 0.00 0.00 0.00 0.00 0.00 0.00 0.00 0.00 0.00
0.01 0.00 0.00 0.00 0.00 0.00 0.00 0.00 0.00 0.00 0.00 0.00 0.00 0.00 0.00 0.01 0.02 0.02 0.02 0.01 0.01 0.01 0.00 0.00 0.00 0.00 0.00 0.00 0.00 0.00 0.00 0.00 0.00 0.00 0.00 0.00 0.00 0.00 0.00 0.00 0.00 0.00 0.00 0.00
0.01 0.01 0.01 0.00 0.00 0.00 0.00 0.00 0.00 0.00 0.00 0.00 0.00 0.00 0.00 0.01 0.02 0.02 0.01 0.01 0.01 0.00 0.00 0.00 0.00 0.00 0.00 0.00 0.00 0.00 0.00 0.00 0.00 0.00 0.00 0.00 0.00 0.00 0.00 0.00 0.00 0.00 0.00 0.00
0.00 0.00 0.00 0.00 0.00 0.00 0.00 0.00 0.00 0.00 0.00 0.00 0.00 0.01 0.01 0.01 0.01 0.01 0.01 0.01 0.00 0.00 0.00 0.00 0.00 0.00 0.00 0.00 0.00 0.00 0.00 0.00 0.00 0.00 0.00 0.00 0.00 0.00 0.00 0.00 0.00 0.00 0.00 0.00
0.00 0.00 0.00 0.01 0.00 0.01 0.01 0.01 0.00 0.00 0.00 0.00 0.00 0.00 0.01 0.01 0.01 0.01 0.01 0.00 0.00 0.00 0.00 0.00 0.00 0.00 0.00 0.00 0.00 0.00 0.00 0.00 0.00 0.00 0.00 0.00 0.00 0.00 0.00 0.00 0.00 0.00 0.00 0.00
0.01 0.00 0.01 0.01 0.01 0.00 0.00 0.00 0.01 0.01 0.01 0.00 0.00 0.00 0.00 0.00 0.00 0.00 0.00 0.00 0.00 0.00 0.00 0.00 0.00 0.00 0.00 0.00 0.00 0.00 0.00 0.00 0.00 0.00 0.00 0.00 0.00 0.00 0.00 0.00 0.00 0.00 0.00 0.00
0.01 0.01 0.01 0.02 0.01 0.01 0.01 0.01 0.01 0.01 0.01 0.01 0.00 0.00 0.00 0.00 0.00 0.00 0.00 0.00 0.00 0.00 0.00 0.00 0.00 0.00 0.00 0.00 0.00 0.00 0.00 0.00 0.00 0.00 0.00 0.00 0.00 0.00 0.00 0.00 0.00 0.00 0.00 0.00
0.02 0.02 0.03 0.03 0.03 0.02 0.02 0.02 0.02 0.02 0.01 0.01 0.01 0.00 0.00 0.00 0.00 0.00 0.00 0.00 0.00 0.00 0.00 0.00 0.00 0.00 0.00 0.00 0.00 0.00 0.00 0.00 0.00 0.00 0.00 0.00 0.00 0.00 0.00 0.00 0.00 0.00 0.00 0.00
0.02 0.02 0.03 0.03 0.03 0.03 0.03 0.02 0.02 0.02 0.02 0.01 0.01 0.00 0.00 0.00 0.00 0.00 0.00 0.00 0.00 0.00 0.00 0.00 0.00 0.00 0.00 0.00 0.00 0.00 0.00 0.00 0.00 0.00 0.00 0.00 0.00 0.00 0.00 0.00 0.00 0.00 0.00 0.00
0.01 0.01 0.02 0.02 0.02 0.03 0.03 0.03 0.03 0.02 0.02 0.01 0.01 0.00 0.00 0.00 0.00 0.00 0.00 0.00 0.00 0.00 0.00 0.00 0.00 0.00 0.00 0.00 0.00 0.00 0.00 0.00 0.00 0.00 0.00 0.00 0.00 0.00 0.00 0.00 0.00 0.00 0.00 0.00
0.00 0.01 0.01 0.01 0.02 0.02 0.03 0.04 0.04 0.03 0.02 0.01 0.01 0.00 0.00 0.00 0.00 0.00 0.00 0.00 0.00 0.00 0.00 0.00 0.00 0.00 0.00 0.00 0.00 0.00 0.00 0.00 0.00 0.00 0.00 0.00 0.00 0.00 0.00 0.00 0.00 0.00 0.00 0.00
0.00 0.01 0.01 0.01 0.01 0.01 0.02 0.03 0.04 0.03 0.03 0.02 0.01 0.01 0.00 0.00 0.00 0.00 0.00 0.00 0.00 0.00 0.00 0.00 0.00 0.00 0.00 0.00 0.00 0.00 0.00 0.00 0.00 0.00 0.00 0.00 0.00 0.00 0.00 0.00 0.00 0.00 0.00 0.00
0.00 0.00 0.01 0.01 0.02 0.02 0.02 0.03 0.04 0.03 0.02 0.02 0.03 0.02 0.01 0.01 0.00 0.00 0.00 0.00 0.00 0.00 0.00 0.00 0.00 0.00 0.00 0.00 0.00 0.00 0.00 0.00 0.00 0.00 0.00 0.00 0.00 0.00 0.00 0.00 0.00 0.00 0.00 0.00
0.00 0.00 0.00 0.01 0.02 0.02 0.02 0.03 0.04 0.04 0.03 0.02 0.02 0.02 0.02 0.01 0.01 0.01 0.00 0.00 0.00 0.00 0.00 0.00 0.00 0.00 0.00 0.00 0.00 0.00 0.00 0.00 0.00 0.00 0.00 0.00 0.00 0.00 0.00 0.00 0.00 0.00 0.00 0.00
MSLP
1014.10 1014.57 1014.98 1015.30 1015.46 1015.43 1015.16 1014.66 1013.95 1013.07 1012.10 1011.11 1010.20 1009.40 1008.79 1008.35 1008.08 1007.94 1007.88 1007.87 1007.85 1007.80 1007.71 1007.61 1007.52 1007.45 1007.45 1007.54 1007.71 1007.99 1008.34 1008.76 1009.25 1009.78 1010.35 1010.97 1011.64 1012.35 1013.11 1013.90 1014.72 1015.55 1016.35 1017.11
1013.80 1014.08 1014.27 1014.33 1014.25 1014.01 1013.61 1013.06 1012.41 1011.69 1010.97 1010.30 1009.72 1009.26 1008.93 1008.73 1008.62 1008.56 1008.54 1008.50 1008.44 1008.36 1008.27 1008.19 1008.15 1008.17 1008.28 1008.48 1008.77 1009.14 1009.56 1010.03 1010.54 1011.07 1011.62 1012.21 1012.83 1013.49 1014.19 1014.92 1015.66 1016.41 1017.12 1017.80
1013.44 1013.50 1013.45 1013.26 1012.95 1012.52 1012.01 1011.45 1010.89 1010.36 1009.91 1009.57 1009.35 1009.24 1009.23 1009.27 1009.34 1009.39 1009.41 1009.37 1009.28 1009.17 1009.05 1008.98 1008.97 1009.05 1009.24 1009.53 1009.91 1010.36 1010.86 1011.38 1011.92 1012.46 1013.00 1013.56 1014.15 1014.76 1015.39 1016.04 1016.70 1017.35 1017.96 1018.51
1013.04 1012.88 1012.59 1012.17 1011.66 1011.09 1010.51 1009.97 1009.52 1009.20 1009.03 1009.01 1009.14 1009.37 1009.65 1009.95 1010.20 1010.37 1010.45 1010.42 1010.32 1010.18 1010.04 1009.95 1009.95 1010.07 1010.31 1010.66 1011.10 1011.62 1012.16 1012.73 1013.29 1013.83 1014.38 1014.92 1015.47 1016.03 1016.60 1017.18 1017.74 1018.28 1018.77 1019.21
1012.61 1012.24 1011.75 1011.15 1010.49 1009.83 1009.22 1008.73 1008.41 1008.29 1008.37 1008.65 1009.08 1009.61 1010.16 1010.68 1011.10 1011.39 1011.53 1011.54 1011.44 1011.28 1011.13 1011.04 1011.04 1011.17 1011.43 1011.81 1012.29 1012.83 1013.40 1013.99 1014.56 1015.12 1015.65 1016.18 1016.69 1017.21 1017.72 1018.22 1018.69 1019.12 1019.50 1019.82
1012.12 1011.59 1010.95 1010.24 1009.50 1008.80 1008.22 1007.81 1007.62 1007.68 1007.97 1008.49 1009.16 1009.92 1010.68 1011.37 1011.94 1012.33 1012.54 1012.59 1012.51 1012.37 1012.23 1012.14 1012.15 1012.28 1012.54 1012.93 1013.42 1013.96 1014.54 1015.12 1015.69 1016.24 1016.76 1017.26 1017.74 1018.21 1018.66 1019.09 1019.48 1019.82 1020.10 1020.30
1011.54 1010.92 1010.21 1009.46 1008.71 1008.05 1007.54 1007.23 1007.16 1007.37 1007.82 1008.50 1009.33 1010.24 1011.13 1011.94 1012.60 1013.07 1013.36 1013.46 1013.43 1013.33 1013.23 1013.16 1013.19 1013.34 1013.60 1013.99 1014.46 1014.99 1015.55 1016.11 1016.66 1017.18 1017.67 1018.14 1018.59 1019.01 1019.41 1019.77 1020.09 1020.34 1020.53 1020.65
1010.86 1010.22 1009.52 1008.81 1008.14 1007.57 1007.17 1006.97 1007.02 1007.33 1007.89 1008.65 1009.55 1010.52 1011.46 1012.32 1013.03 1013.56 1013.90 1014.07 1014.12 1014.09 1014.05 1014.05 1014.12 1014.29 1014.57 1014.95 1015.41 1015.91 1016.44 1016.96 1017.47 1017.95 1018.41 1018.84 1019.25 1019.62 1019.97 1020.27 1020.52 1020.71 1020.82 1020.87
1010.11 1009.51 1008.90 1008.31 1007.77 1007.35 1007.08 1007.00 1007.15 1007.53 1008.12 1008.89 1009.78 1010.73 1011.65 1012.49 1013.21 1013.77 1014.16 1014.41 1014.55 1014.62 1014.68 1014.76 1014.91 1015.13 1015.44 1015.82 1016.26 1016.73 1017.22 1017.70 1018.16 1018.60 1019.01 1019.40 1019.76 1020.09 1020.38 1020.63 1020.82 1020.95 1021.01 1021.00
1009.32 1008.83 1008.36 1007.94 1007.58 1007.33 1007.21 1007.26 1007.49 1007.90 1008.48 1009.20 1010.02 1010.88 1011.72 1012.50 1013.19 1013.75 1014.18 1014.51 1014.75 1014.94 1015.12 1015.32 1015.56 1015.85 1016.20 1016.60 1017.03 1017.48 1017.92 1018.36 1018.77 1019.16 1019.53 1019.87 1020.18 1020.46 1020.71 1020.91 1021.05 1021.13 1021.14 1021.08
1008.59 1008.24 1007.95 1007.71 1007.55 1007.48 1007.52 1007.68 1007.98 1008.40 1008.93 1009.57 1010.27 1011.00 1011.73 1012.42 1013.05 1013.60 1014.07 1014.47 1014.82 1015.13 1015.44 1015.76 1016.11 1016.48 1016.89 1017.31 1017.74 1018.16 1018.58 1018.97 1019.34 1019.68 1020.00 1020.30 1020.56 1020.80 1021.00 1021.15 1021.24 1021.28 1021.25 1021.15
1008.00 1007.80 1007.67 1007.63 1007.66 1007.76 1007.94 1008.21 1008.54 1008.96 1009.44 1009.98 1010.55 1011.16 1011.76 1012.35 1012.92 1013.45 1013.94 1014.41 1014.86 1015.29 1015.72 1016.16 1016.60 1017.06 1017.51 1017.95 1018.39 1018.80 1019.18 1019.54 1019.87 1020.18 1020.45 1020.71 1020.94 1021.13 1021.28 1021.39 1021.44 1021.43 1021.36 1021.24
1007.62 1007.54 1007.56 1007.67 1007.86 1008.11 1008.41 1008.75 1009.13 1009.54 1009.97 1010.42 1010.89 1011.38 1011.88 1012.38 1012.89 1013.40 1013.92 1014.44 1014.97 1015.50 1016.03 1016.56 1017.09 1017.60 1018.09 1018.55 1018.98 1019.38 1019.74 1020.06 1020.36 1020.64 1020.88 1021.10 1021.30 1021.45 1021.57 1021.63 1021.64 1021.59 1021.49 1021.33
1007.46 1007.46 1007.59 1007.81 1008.11 1008.47 1008.86 1009.27 1009.69 1010.09 1010.49 1010.89 1011.29 1011.69 1012.12 1012.56 1013.03 1013.53 1014.07 1014.63 1015.21 1015.81 1016.41 1017.00 1017.57 1018.12 1018.63 1019.09 1019.51 1019.88 1020.22 1020.52 1020.80 1021.05 1021.27 1021.46 1021.63 1021.76 1021.84 1021.87 1021.84 1021.75 1021.61 1021.42
1007.51 1007.55 1007.72 1008.00 1008.37 1008.79 1009.25 1009.71 1010.15 1010.58 1010.98 1011.35 1011.72 1012.09 1012.48 1012.90 1013.35 1013.85 1014.40 1014.98 1015.60 1016.23 1016.86 1017.48 1018.07 1018.61 1019.11 1019.56 1019.96 1020.31 1020.62 1020.90 1021.15 1021.38 1021.59 1021.76 1021.91 1022.01 1022.07 1022.06 1022.00 1021.88 1021.71 1021.50
1007.71 1007.75 1007.92 1008.20 1008.59 1009.04 1009.52 1010.02 1010.50 1010.95 1011.38 1011.77 1012.15 1012.53 1012.92 1013.34 1013.80 1014.31 1014.87 1015.46 1016.08 1016.72 1017.35 1017.96 1018.53 1019.06 1019.53 1019.95 1020.31 1020.63 1020.92 1021.18 1021.41 1021.63 1021.82 1021.99 1022.12 1022.20 1022.24 1022.21 1022.13 1021.98 1021.79 1021.56
1008.01 1008.00 1008.13 1008.38 1008.73 1009.18 1009.67 1010.18 1010.70 1011.20 1011.67 1012.11 1012.54 1012.96 1013.38 1013.83 1014.32 1014.83 1015.39 1015.99 1016.60 1017.22 1017.82 1018.40 1018.94 1019.43 1019.86 1020.24 1020.57 1020.87 1021.13 1021.37 1021.59 1021.79 1021.98 1022.13 1022.26 1022.33 1022.35 1022.31 1022.21 1022.05 1021.84 1021.59
1008.35 1008.27 1008.32 1008.51 1008.81 1009.22 1009.70 1010.23 1010.77 1011.32 1011.85 1012.35 1012.84 1013.32 1013.80 1014.29 1014.79 1015.33 1015.89 1016.47 1017.07 1017.66 1018.23 1018.77 1019.26 1019.71 1020.11 1020.45 1020.75 1021.02 1021.26 1021.49 1021.70 1021.89 1022.07 1022.22 1022.33 1022.40 1022.41 1022.36 1022.25 1022.08 1021.86 1021.61
1008.71 1008.54 1008.51 1008.61 1008.85 1009.21 1009.66 1010.19 1010.76 1011.34 1011.92 1012.49 1013.05 1013.58 1014.11 1014.64 1015.18 1015.72 1016.28 1016.85 1017.42 1017.98 1018.52 1019.02 1019.48 1019.90 1020.27 1020.59 1020.87 1021.13 1021.36 1021.57 1021.77 1021.96 1022.13 1022.27 1022.38 1022.44 1022.44 1022.39 1022.28 1022.11 1021.89 1021.63
1009.08 1008.83 1008.71 1008.73 1008.89 1009.20 1009.62 1010.14 1010.71 1011.32 1011.95 1012.57 1013.17 1013.75 1014.32 1014.88 1015.43 1015.98 1016.53 1017.08 1017.63 1018.16 1018.68 1019.16 1019.60 1020.00 1020.36 1020.68 1020.96 1021.21 1021.43 1021.64 1021.84 1022.02 1022.18 1022.31 1022.41 1022.46 1022.46 1022.41 1022.30 1022.13 1021.92 1021.67
1009.49 1009.16 1008.96 1008.91 1009.01 1009.26 1009.65 1010.14 1010.71 1011.34 1011.98 1012.62 1013.26 1013.86 1014.45 1015.02 1015.57 1016.11 1016.65 1017.18 1017.71 1018.23 1018.73 1019.20 1019.64 1020.05 1020.41 1020.74 1021.03 1021.29 1021.52 1021.73 1021.92 1022.09 1022.23 1022.35 1022.44 1022.48 1022.48 1022.42 1022.31 1022.15 1021.95 1021.70
1009.94 1009.56 1009.30 1009.18 1009.23 1009.44 1009.79 1010.26 1010.82 1011.43 1012.07 1012.72 1013.35 1013.96 1014.54 1015.09 1015.63 1016.15 1016.67 1017.19 1017.70 1018.21 1018.70 1019.18 1019.63 1020.06 1020.44 1020.79 1021.10 1021.37 1021.61 1021.82 1022.00 1022.16 1022.29 1022.39 1022.46 1022.49 1022.48 1022.42 1022.31 1022.15 1021.95 1021.70
1010.44 1010.02 1009.72 1009.57 1009.58 1009.75 1010.07 1010.51 1011.05 1011.64 1012.26 1012.89 1013.50 1014.08 1014.63 1015.16 1015.67 1016.16 1016.65 1017.15 1017.65 1018.15 1018.65 1019.14 1019.61 1020.06 1020.46 1020.84 1021.17 1021.45 1021.70 1021.90 1022.08 1022.22 1022.33 1022.41 1022.45 1022.47 1022.44 1022.37 1022.26 1022.11 1021.90 1021.65
1010.96 1010.52 1010.20 1010.03 1010.02 1010.18 1010.47 1010.89 1011.39 1011.95 1012.54 1013.13 1013.70 1014.25 1014.76 1015.25 1015.72 1016.19 1016.65 1017.12 1017.61 1018.10 1018.60 1019.10 1019.59 1020.06 1020.49 1020.88 1021.22 1021.52 1021.76 1021.96 1022.12 1022.24 1022.32 1022.38 1022.40 1022.39 1022.35 1022.27 1022.14 1021.98 1021.76 1021.50
1011.45 1011.01 1010.69 1010.52 1010.51 1010.65 1010.93 1011.32 1011.80 1012.32 1012.87 1013.42 1013.95 1014.45 1014.93 1015.38 1015.81 1016.24 1016.68 1017.13 1017.60 1018.09 1018.59 1019.10 1019.59 1020.07 1020.51 1020.91 1021.26 1021.55 1021.79 1021.97 1022.11 1022.20 1022.26 1022.28 1022.27 1022.24 1022.17 1022.07 1021.92 1021.74 1021.51 1021.22
1011.86 1011.44 1011.14 1010.98 1010.97 1011.11 1011.37 1011.74 1012.19 1012.68 1013.19 1013.70 1014.19 1014.65 1015.09 1015.51 1015.92 1016.33 1016.75 1017.18 1017.64 1018.12 1018.62 1019.12 1019.62 1020.09 1020.53 1020.92 1021.26 1021.53 1021.75 1021.92 1022.03 1022.09 1022.11 1022.10 1022.06 1021.99 1021.89 1021.76 1021.59 1021.38 1021.12 1020.80
1012.18 1011.78 1011.50 1011.35 1011.35 1011.48 1011.72 1012.07 1012.48 1012.94 1013.41 1013.89 1014.35 1014.79 1015.21 1015.61 1016.01 1016.41 1016.83 1017.26 1017.71 1018.19 1018.68 1019.17 1019.65 1020.11 1020.53 1020.90 1021.22 1021.47 1021.66 1021.80 1021.87 1021.90 1021.89 1021.85 1021.77 1021.66 1021.52 1021.35 1021.14 1020.89 1020.60 1020.25
Thickness
5514 5524 5526 5526 5527 5526 5522 5519 5516 5530 5540 5558 5563 5563 5560 5555 5549 5544 5540 5534 5526 5519 5513 5509 5505 5503 5502 5503 5505 5508 5511 5514 5517 5521 5523 5525 5526 5526 5526 5525 5522 5519 5515 5510
5515 5524 5523 5524 5530 5531 5530 5531 5532 5538 5547 5560 5562 5558 5553 5544 5539 5535 5529 5523 5517 5511 5504 5498 5493 5489 5488 5488 5490 5493 5496 5499 5503 5508 5510 5512 5513 5514 5513 5511 5509 5506 5502 5497
5508 5520 5526 5523 5540 5540 5537 5542 5543 5544 5553 5560 5559 5554 5543 5534 5529 5524 5519 5514 5508 5503 5497 5491 5485 5482 5479 5478 5480 5481 5484 5487 5491 5495 5498 5500 5501 5501 5500 5498 5496 5492 5488 5485
5509 5514 5516 5543 5555 5553 5548 5551 5552 5554 5557 5558 5555 5544 5532 5525 5520 5515 5511 5507 5500 5495 5490 5485 5481 5477 5474 5473 5472 5473 5474 5477 5480 5484 5487 5488 5489 5488 5487 5486 5483 5480 5476 5472
5507 5510 5517 5541 5552 5553 5550 5552 5557 5555 5557 5555 5548 5539 5528 5519 5514 5509 5506 5501 5496 5491 5487 5482 5479 5476 5473 5469 5468 5468 5468 5470 5471 5475 5477 5478 5478 5477 5476 5474 5471 5468 5465 5462
5506 5509 5514 5542 5554 5555 5551 5550 5558 5556 5554 5551 5544 5543 5534 5515 5509 5505 5501 5497 5493 5489 5485 5480 5476 5474 5472 5468 5466 5465 5464 5465 5466 5468 5469 5469 5468 5467 5466 5464 5461 5458 5455 5452
5507 5509 5519 5542 5550 5550 5545 5552 5558 5556 5552 5548 5542 5536 5521 5511 5505 5501 5497 5493 5490 5486 5482 5477 5474 5473 5469 5466 5463 5462 5461 5461 5462 5462 5462 5461 5460 5459 5457 5454 5451 5448 5444 5440
5510 5510 5521 5547 5548 5547 5551 5555 5555 5552 5549 5542 5531 5521 5514 5508 5502 5498 5494 5490 5486 5482 5477 5474 5472 5470 5466 5461 5459 5459 5458 5458 5457 5457 5457 5455 5453 5450 5448 5445 5441 5437 5433 5428
5517 5527 5541 5546 5549 5551 5550 5550 5549 5545 5542 5534 5525 5518 5511 5505 5500 5496 5492 5487 5483 5479 5475 5471 5469 5467 5463 5458 5457 5457 5456 5454 5452 5451 5449 5447 5445 5442 5439 5435 5431 5426 5421 5416
5521 5530 5538 5542 5544 5546 5545 5545 5542 5539 5536 5530 5524 5516 5509 5504 5498 5494 5490 5485 5481 5478 5473 5469 5465 5463 5460 5457 5456 5455 5452 5449 5447 5444 5441 5439 5436 5434 5430 5425 5421 5416 5411 5405
5524 5532 5537 5542 5543 5542 5540 5537 5535 5534 5532 5528 5521 5514 5508 5502 5498 5493 5489 5484 5480 5475 5471 5466 5463 5460 5458 5456 5454 5451 5447 5444 5440 5437 5434 5430 5427 5424 5420 5416 5412 5407 5402 5396
5524 5533 5535 5540 5541 5537 5534 5532 5530 5528 5526 5522 5518 5512 5505 5500 5496 5491 5486 5481 5476 5472 5468 5464 5461 5457 5455 5452 5450 5447 5442 5437 5433 5429 5425 5421 5417 5413 5412 5409 5405 5401 5396 5391
5528 5531 5531 5533 5531 5530 5528 5525 5524 5522 5520 5516 5512 5508 5503 5497 5492 5488 5482 5478 5474 5470 5465 5461 5457 5453 5450 5448 5444 5440 5435 5430 5425 5421 5416 5412 5408 5404 5399 5397 5395 5391 5386 5382
5519 5521 5525 5526 5523 5521 5519 5516 5514 5513 5511 5509 5506 5502 5497 5492 5487 5482 5478 5474 5470 5466 5461 5457 5452 5447 5444 5441 5437 5432 5427 5424 5418 5412 5408 5404 5400 5396 5391 5387 5382 5377 5374 5370
5510 5512 5516 5516 5512 5510 5508 5506 5504 5502 5501 5499 5498 5495 5491 5487 5481 5477 5473 5469 5464 5460 5455 5450 5446 5441 5438 5434 5429 5424 5420 5414 5409 5405 5401 5397 5393 5388 5383 5379 5373 5368 5363 5358
5497 5501 5504 5505 5504 5502 5501 5500 5498 5496 5494 5492 5489 5487 5484 5480 5474 5470 5466 5462 5458 5453 5448 5444 5439 5434 5431 5427 5422 5417 5412 5409 5403 5398 5393 5389 5385 5380 5376 5370 5365 5359 5353 5347
5487 5493 5495 5496 5496 5497 5496 5496 5495 5492 5489 5486 5483 5479 5475 5471 5466 5461 5457 5454 5450 5445 5441 5437 5432 5428 5424 5420 5415 5410 5405 5401 5397 5391 5386 5382 5377 5372 5367 5362 5356 5349 5343 5337
5482 5488 5491 5494 5496 5496 5495 5493 5490 5487 5484 5480 5476 5472 5468 5465 5460 5455 5449 5445 5440 5435 5431 5428 5425 5421 5417 5412 5408 5403 5398 5393 5388 5383 5379 5375 5370 5365 5359 5353 5347 5340 5333 5326
5481 5486 5490 5493 5495 5495 5493 5489 5486 5482 5478 5474 5470 5466 5462 5458 5452 5447 5442 5438 5434 5428 5423 5421 5419 5413 5409 5405 5401 5396 5391 5386 5381 5376 5372 5368 5361 5356 5350 5344 5337 5330 5323 5316
5476 5481 5485 5488 5490 5489 5487 5484 5480 5476 5472 5468 5464 5459 5453 5448 5444 5439 5435 5431 5428 5425 5419 5415 5410 5406 5402 5398 5393 5388 5383 5378 5373 5368 5363 5358 5353 5347 5341 5335 5328 5321 5313 5305
5469 5474 5477 5480 5481 5481 5480 5477 5474 5469 5465 5461 5457 5453 5447 5441 5437 5433 5429 5423 5418 5415 5412 5409 5403 5398 5394 5390 5386 5380 5375 5371 5366 5360 5355 5350 5344 5338 5332 5324 5317 5310 5302 5295
5460 5464 5468 5469 5471 5470 5469 5468 5465 5462 5457 5453 5449 5444 5439 5434 5429 5425 5422 5419 5413 5410 5405 5400 5395 5392 5388 5383 5378 5373 5368 5363 5358 5352 5347 5341 5335 5329 5321 5314 5306 5299 5291 5284
5451 5454 5458 5460 5460 5460 5459 5458 5456 5453 5450 5447 5443 5439 5435 5431 5427 5423 5416 5411 5408 5404 5398 5393 5390 5387 5382 5375 5370 5366 5361 5356 5351 5345 5339 5333 5326 5319 5312 5305 5297 5289 5282 5276
5440 5443 5446 5448 5450 5450 5449 5448 5446 5444 5441 5439 5436 5433 5429 5424 5418 5415 5412 5408 5403 5398 5391 5388 5385 5381 5375 5367 5363 5358 5353 5348 5343 5337 5331 5326 5319 5311 5304 5297 5289 5282 5275 5270
5429 5432 5435 5437 5439 5440 5439 5437 5435 5433 5431 5429 5427 5424 5421 5418 5414 5409 5405 5401 5397 5391 5385 5382 5378 5373 5366 5361 5356 5351 5346 5341 5335 5330 5325 5318 5311 5304 5297 5290 5282 5276 5271 5266
5419 5422 5425 5428 5429 5430 5429 5429 5428 5425 5423 5420 5417 5414 5411 5408 5405 5401 5397 5393 5389 5384 5378 5374 5369 5364 5358 5353 5349 5344 5339 5334 5329 5323 5318 5312 5305 5298 5291 5284 5278 5272 5267 5263
5409 5412 5415 5418 5419 5420 5421 5421 5420 5418 5417 5415 5410 5406 5403 5400 5397 5393 5388 5384 5379 5374 5369 5364 5360 5355 5351 5346 5342 5337 5333 5328 5323 5317 5312 5306 5299 5293 5286 5279 5273 5268 5263 5260